Irving, TX

4:04 AM CST on February 09, 2016 (GMT -0600)
Dallas-Fort Worth International

Weather History for KDFW - March, 2014

Change the Weather History Date:

Sunday, March 23, 2014

  Actual Average Record
Temperature  
Mean Temperature 51 °F 60 °F  
Max Temperature 58 °F 70 °F 91 °F (1929)
Min Temperature 43 °F 49 °F 28 °F (1952)
Degree Days  
Heating Degree Days 14 7  
Month to date heating degree days 279 214  
Since 1 July heating degree days 2452 2146  
Cooling Degree Days 0 1  
Month to date cooling degree days 11 21  
Year to date cooling degree days 11 28  
Growing Degree Days 2 (Base 50)    
Moisture  
Dew Point 31 °F    
Average Humidity 50    
Maximum Humidity 64    
Minimum Humidity 36    
Precipitation  
Precipitation 0.00 in 0.11 in 1.69 in (1978)
Month to date precipitation 1.39 2.62  
Year to date precipitation 2.13 7.41  
Snow  
Snow 0.00 in 0.00 in 0.00 in ()
Month to date snowfall 0.1 0.1  
Since 1 July snowfall 2.9 1.1  
Snow Depth 0.00 in    
Sea Level Pressure  
Sea Level Pressure 30.25 in    
Wind  
Wind Speed 16 mph (NNE)    
Max Wind Speed 30 mph    
Max Gust Speed 38 mph    
Visibility 10 miles    
Events      
T = Trace of Precipitation, MM = Missing Value Source: NWS Daily Summary

Daily Weather History Graph

Daily Weather History Graph

Search for Another Location

Airport or City:

Trip Planner

Search our weather history database for the weather conditions in past years. The results will help you decide how hot, cold, wet, or windy it might be!

Date:

Astronomy

Mar. 23, 2014 Rise Set
Actual Time 7:27 AM CDT 7:41 PM CDT
Civil Twilight 7:03 AM CDT 8:06 PM CDT
Nautical Twilight 6:34 AM CDT 8:35 PM CDT
Astronomical Twilight 6:05 AM CDT 9:04 PM CDT
Moon 1:45 AM CDT (3/23) 12:25 PM CDT (3/23)
Length of Visible Light 13h 03m
Length of Day
12h 14m
Waning Gibbous, 54% of the Moon is Illuminated
Mar 23
Waning Gibbous
Mar 23
Last Quarter
Mar 30
New
Apr 7
First Quarter
Apr 15
Full

Hourly Weather History & Observations

Time (CDT) Temp. Windchill Dew Point Humidity Pressure Visibility Wind Dir Wind Speed Gust Speed Precip Events Conditions
12:53 AM 54.0 °F - 41.0 °F 62% 30.13 in 10.0 mi NNW 13.8 mph - N/A   Overcast
1:53 AM 54.0 °F - 37.0 °F 53% 30.13 in 10.0 mi North 18.4 mph - N/A   Overcast
2:53 AM 53.1 °F - 36.0 °F 52% 30.14 in 10.0 mi North 23.0 mph 31.1 mph N/A   Overcast
3:53 AM 53.1 °F - 35.1 °F 50% 30.15 in 10.0 mi NNE 18.4 mph 33.4 mph N/A   Overcast
4:53 AM 51.1 °F - 36.0 °F 56% 30.18 in 10.0 mi NNE 19.6 mph 31.1 mph N/A   Overcast
5:53 AM 50.0 °F - 35.1 °F 57% 30.22 in 10.0 mi NNE 19.6 mph 29.9 mph N/A   Overcast
6:07 AM 50.0 °F - 34.0 °F 54% 30.23 in 10.0 mi NNE 21.9 mph 28.8 mph N/A   Overcast
6:14 AM 50.0 °F - 33.1 °F 52% 30.23 in 10.0 mi NNE 25.3 mph 32.2 mph N/A   Overcast
6:32 AM 50.0 °F - 32.0 °F 50% 30.24 in 10.0 mi North 20.7 mph 28.8 mph N/A   Overcast
6:43 AM 50.0 °F - 30.9 °F 48% 30.24 in 10.0 mi NNE 25.3 mph 31.1 mph N/A   Overcast
6:53 AM 50.0 °F - 30.0 °F 46% 30.25 in 10.0 mi North 24.2 mph 31.1 mph N/A   Overcast
7:12 AM 48.9 °F - 30.0 °F 48% 30.26 in 10.0 mi North 20.7 mph - N/A   Overcast
7:53 AM 48.0 °F - 27.0 °F 44% 30.29 in 10.0 mi North 20.7 mph 31.1 mph N/A   Overcast
8:44 AM 46.9 °F - 25.0 °F 42% 30.32 in 10.0 mi NNE 18.4 mph 28.8 mph N/A   Overcast
8:53 AM 46.9 °F - 26.1 °F 44% 30.34 in 10.0 mi North 15.0 mph - N/A   Overcast
9:53 AM 46.9 °F - 25.0 °F 42% 30.36 in 10.0 mi North 18.4 mph - N/A   Overcast
10:53 AM 48.0 °F - 25.0 °F 41% 30.37 in 10.0 mi North 20.7 mph - N/A   Overcast
11:53 AM 48.9 °F - 26.1 °F 41% 30.33 in 10.0 mi NNE 23.0 mph - N/A   Mostly Cloudy
12:53 PM 52.0 °F - 28.0 °F 40% 30.31 in 10.0 mi North 19.6 mph - N/A   Mostly Cloudy
1:53 PM 53.1 °F - 30.0 °F 41% 30.32 in 10.0 mi North 10.4 mph 19.6 mph N/A   Mostly Cloudy
2:53 PM 55.0 °F - 32.0 °F 42% 30.28 in 10.0 mi NNE 13.8 mph - N/A   Mostly Cloudy
3:53 PM 57.0 °F - 32.0 °F 39% 30.24 in 10.0 mi NNE 13.8 mph 25.3 mph N/A   Mostly Cloudy
4:53 PM 57.0 °F - 30.9 °F 37% 30.23 in 10.0 mi North 15.0 mph - N/A   Mostly Cloudy
5:53 PM 57.9 °F - 30.9 °F 36% 30.22 in 10.0 mi North 12.7 mph - N/A   Scattered Clouds
6:53 PM 55.9 °F - 30.0 °F 37% 30.21 in 10.0 mi North 16.1 mph - N/A   Partly Cloudy
7:53 PM 53.1 °F - 28.9 °F 40% 30.22 in 10.0 mi North 10.4 mph - N/A   Partly Cloudy
8:53 PM 50.0 °F - 28.9 °F 44% 30.23 in 10.0 mi NNE 9.2 mph - N/A   Partly Cloudy
9:53 PM 48.9 °F - 27.0 °F 43% 30.26 in 10.0 mi NNE 9.2 mph - N/A   Partly Cloudy
10:53 PM 46.9 °F - 27.0 °F 46% 30.26 in 10.0 mi NNE 8.1 mph - N/A   Partly Cloudy
11:53 PM 46.0 °F 42.5 °F 27.0 °F 47% 30.26 in 10.0 mi NNE 6.9 mph - N/A   Partly Cloudy